CZ-4B DEB (43660 NORAD) Tracking and Keplerian Element Data

This shows tracking and keplerian element data for the satellite.

Feedback or suggestion? Click here.




ElementValue
Catalog43660
NameCZ-4B DEB
Epoch Orbit256
Epoch Day316.43562622
Epoch Year2018
RAAN321.8493
Inclination99.3244
Eccentricity0.0012957
Argument of Perigee280.815
Mean Anonmoly79.1518
Mean Motion13.89707795
Decay Rate2.9E-07
L11 43660U 18081D 18316.43562622 .00000029 00000-0 60245-4 0 9998
L22 43660 99.3244 321.8493 0012957 280.8150 79.1518 13.89707795 2560

Live tracking and technical data element details for CZ-4B DEB (NORAD 43660). CZ-4B DEB can be tracked NOW for your location showing map with azimuth and elevation plus other details from your city location.

Track the satellite on the map from your city or location and see movement details for azimuth, elevation, latitude, longitude, range, height, and movement on the map or in text.







IsCatalogInMostPopularTable: catalog: 43660, numindb: 7
Update: records affected: 1



GetName: 43660 CZ-4B DEB

Hit Count: updated at: Tue, 13 Nov 2018 06:25:21 GMT